World > North America > United States > New York

Hourly Westons Mills, NY Regional Weather

Feedback E-mail the Weather

Quick WX

Westons Mills, NY Weather Maps

°F °C°F °C
Westons Mills Weather Map
UTC Time: 7/6/2022, 00:18
Your Time:

Westons Mills, NY Regional Weather

Expires:202207060100;;753941
ASUS41 KALY 060010
RWRALY

NEW YORK STATE HOURLY WEATHER ROUNDUP
NATIONAL WEATHER SERVICE ALBANY NY
800 PM EDT TUE JUL 05 2022

NOTE: "FAIR" INDICATES FEW OR NO CLOUDS BELOW 12,000 FEET WITH NO
SIGNIFICANT WEATHER AND/OR NO OBSTRUCTIONS TO VISIBILITY.


NYZ001>004-010>016-019>021-085-060100-
WEST

  
CITY           SKY/WX    TMP DP  RH WIND       PRES   REMARKS
NIAGARA FALLS  PTCLDY    77  70  79 SW10      29.77R                  
BUFFALO        PTCLDY    73  68  84 SW18      29.79R                  
DUNKIRK        PTCLDY    78  70  76 SW10G24   29.82R                  
JAMESTOWN      CLOUDY    74  69  85 W7        29.89S                  
WELLSVILLE     MOCLDY    74  66  76 VRB7G22   29.89S                  
ROCHESTER      MOCLDY    77  69  76 W17       29.77R                  
PENN YAN       CLOUDY    77  67  71 W10       29.80S                  
$$

             KEY
       WCI = WIND CHILL INDEX
       VSB = VISIBILITY
       HX  = HEAT INDEX
$$
  

SKY/WX - Weather  TMP - Temperature  DP - Dew Point  RH - Humidity
WIND - Wind Direction/Speed PRES - Barometric Pressure VSB - Visibility
WCI - Wind Chill Index E13G22 Wind - East Wind 13 mph/Gusts of 22 mph

Trending Headlines

Westons Mills Radar Loop



Westons Mills Quick Facts


National Two Day Weather Forecast


E-mail the Westons Mills Weather Forecast

Voice your opinion or tell us about page issues...